[Iaude] MPEC E118: 2024 EO2 [a=2.72,e=0.56,i=54.2,H=18.2]

mpec at cfa.harvard.edu mpec at cfa.harvard.edu
Thu Mar 7 18:52:56 EST 2024


M.P.E.C. 2024-E118                                Issued 2024 March 7, 23:51 UT

     The Minor Planet Electronic Circulars contain information on unusual
         minor planets, routine data on comets and natural satellites,
         and occasional editorial announcements.  They are published
    on behalf of Division F of the International Astronomical Union by the
          Minor Planet Center, Smithsonian Astrophysical Observatory,
                          Cambridge, MA 02138, U.S.A.
			  
             Prepared using the Tamkin Foundation Computer Network

                              MPC at CFA.HARVARD.EDU
            URL https://www.minorplanetcenter.net/    ISSN 1523-6714

                                    2024 EO2                                    


Observations:
     K24E02O* S2024 03 01.70221 17 22 37.82 +43 04 22.0          20   RLEE118C51
     K24E02O  s2024 03 01.70221 1 + 1215.1576 - 4715.3940 + 4713.6271   EE118C51
     K24E02O  S2024 03 01.95982 17 22 35.63 +43 01 46.1                LEE118C51
     K24E02O  s2024 03 01.95982 1 + 1236.4608 - 4744.1206 + 4679.1727   EE118C51
     K24E02O  S2024 03 02.08855 17 22 34.48 +43 00 26.0                LEE118C51
     K24E02O  s2024 03 02.08855 1 + 1247.0446 - 4726.3759 + 4694.2286   EE118C51
     K24E02O  S2024 03 02.15337 17 22 33.86 +42 59 45.1                LEE118C51
     K24E02O  s2024 03 02.15337 1 + 1252.5834 - 4922.9611 + 4486.6622   EE118C51
     K24E02O  S2024 03 02.28210 17 22 32.48 +42 58 26.1                LEE118C51
     K24E02O  s2024 03 02.28210 1 + 1263.6690 - 4908.7770 + 4499.0111   EE118C51
     K24E02O  S2024 03 02.28223 17 22 32.57 +42 58 26.1          20   RLEE118C51
     K24E02O  s2024 03 02.28223 1 + 1263.4754 - 4965.5273 + 4436.5285   EE118C51
     K24E02O  S2024 03 02.34603 17 22 31.90 +42 57 46.5                LEE118C51
     K24E02O  s2024 03 02.34603 1 + 1268.0284 - 4696.9976 + 4717.9192   EE118C51
     K24E02O  S2024 03 02.53971 17 22 29.90 +42 55 41.2                LEE118C51
     K24E02O  s2024 03 02.53971 1 + 1285.7877 - 4938.1299 + 4460.5123   EE118C51
     K24E02O  S2024 03 02.60363 17 22 29.34 +42 55 06.6                LEE118C51
     K24E02O  s2024 03 02.60363 1 + 1289.6812 - 4728.2899 + 4680.6945   EE118C51
     K24E02O  S2024 03 02.92593 17 22 25.41 +42 51 44.9                LEE118C51
     K24E02O  s2024 03 02.92593 1 + 1318.8054 - 4898.6983 + 4494.0520   EE118C51
     K24E02O  S2024 03 03.05479 17 22 23.86 +42 50 23.4                LEE118C51
     K24E02O  s2024 03 03.05479 1 + 1330.2906 - 4942.7969 + 4442.2052   EE118C51
     K24E02O  S2024 03 04.47117 17 22 01.28 +42 35 12.4          20   RLEE118C51
     K24E02O  s2024 03 04.47117 1 + 1452.8408 - 4933.0186 + 4413.6482   EE118C51
     K24E02O  S2024 03 04.79308 17 21 55.12 +42 31 41.5                LEE118C51
     K24E02O  s2024 03 04.79308 1 + 1481.1875 - 4942.5010 + 4393.4776   EE118C51
     K24E02O  S2024 03 04.85752 17 21 53.79 +42 31 00.0                LEE118C51
     K24E02O  s2024 03 04.85752 1 + 1487.6983 - 4966.9896 + 4363.6196   EE118C51
     K24E02O  S2024 03 04.98626 17 21 51.17 +42 29 33.1                LEE118C51
     K24E02O  s2024 03 04.98626 1 + 1498.7580 - 4961.0092 + 4366.5653   EE118C51
     K24E02O  S2024 03 05.05056 17 21 49.75 +42 28 50.1                LEE118C51
     K24E02O  s2024 03 05.05056 1 + 1503.1608 - 4930.2238 + 4399.6704   EE118C51
     K24E02O  S2024 03 05.17930 17 21 46.91 +42 27 23.4                LEE118C51
     K24E02O  s2024 03 05.17930 1 + 1514.1468 - 4924.7187 + 4402.0057   EE118C51
     K24E02O  S2024 03 05.24373 17 21 45.64 +42 26 41.2                LEE118C51
     K24E02O  s2024 03 05.24373 1 + 1520.8604 - 4949.9627 + 4371.3242   EE118C51
     K24E02O  S2024 03 05.30804 17 21 44.15 +42 25 58.5                LEE118C51
     K24E02O  s2024 03 05.30804 1 + 1525.1358 - 4919.6697 + 4403.7919   EE118C51
     K24E02O  S2024 03 05.50121 17 21 39.64 +42 23 48.8          20   RLEE118C51
     K24E02O  s2024 03 05.50121 1 + 1542.9916 - 4940.8815 + 4373.7177   EE118C51
     K24E02O  S2024 03 05.75869 17 21 33.51 +42 20 54.6                LEE118C51
     K24E02O  s2024 03 05.75869 1 + 1565.1797 - 4933.7646 + 4373.7526   EE118C51
     K24E02O KB2024 03 07.05755117 20 59.10 +42 05 47.4          19.9 GXEE118I93
     K24E02O KB2024 03 07.06059717 20 58.96 +42 05 45.2          19.7 GXEE118I93
     K24E02O KB2024 03 07.06363617 20 58.92 +42 05 43.3          19.8 GXEE118I93
     K24E02O 1C2024 03 07.20136217 20 54.50 +42 04 11.3          20.1 GVEE118Z31
     K24E02O 1C2024 03 07.20387617 20 54.40 +42 04 09.5          20.2 GVEE118Z31
     K24E02O 1C2024 03 07.20638517 20 54.31 +42 04 07.8          20.2 GVEE118Z31
     K24E02O 1C2024 03 07.20888917 20 54.22 +42 04 06.1          20.3 GVEE118Z31

Observer details:
C51 WISE.  Observer Near-Earth Object Wide-field Infrared Survey Explorer.
    Measurers A. K. Mainzer, J. M. Bauer, T. Grav, J. R. Masiero, R. M. Cutri,
    J. W. Dailey, Y. G. Kwon, J. Pittichova, E. L. Wright.
I93 St Pardon de Conques.  Observer F. Losse.  0.40-m f/3.7 reflector + CCD.
Z31 Tenerife Observatory-LCO A, Tenerife.  Observer J. D. Armstrong.  1.0-m
    f/8 modified Ritchey-Chretien + CCD.

Orbital elements:
2024 EO2                                                 Earth MOID = 0.1925 AU
Epoch 2024 Mar. 31.0 TT = JDT 2460400.5                 Bell                    
M 359.35125              (2000.0)            P               Q                  
n   0.22000470     Peri.  165.98258     -0.92198120     +0.05487415             
a   2.7175742      Node    28.20828     -0.38431318     -0.25103362             
e   0.5640083      Incl.   54.19062     +0.04747679     -0.96642172             
P   4.48           H   18.23          G   0.15           U   9                  
Residuals in seconds of arc
240301 C51  1.3+  0.3-    240303 C51  0.6+  0.3+    240305 C51  0.4-  0.6+
240301 C51  0.3+  1.6+    240304 C51  1.0-  0.5-    240307 I93  0.2+  0.1+
240302 C51  0.2+  0.9+    240304 C51  0.3+  0.3+    240307 I93  0.3-  0.0
240302 C51  0.0   0.6-    240304 C51  0.1+  1.3+    240307 I93  0.3+  0.1+
240302 C51  1.5-  0.1+    240304 C51  0.7+  0.1-    240307 Z31  0.0   0.0
240302 C51  0.5-  0.1+    240305 C51  0.0   0.3-    240307 Z31  0.1-  0.1-
240302 C51  0.9-  0.7+    240305 C51  0.6-  1.1-    240307 Z31  0.1-  0.1-
240302 C51  0.4-  4.8-    240305 C51  1.0+  0.3-    240307 Z31  0.1-  0.1-
240302 C51  1.1+  1.0+    240305 C51  0.4+  0.2+
240302 C51  0.3-  0.8+    240305 C51  0.6-  0.4+

Ephemeris:
2024 EO2                 a,e,i = 2.72, 0.56, 54                  q = 1.1848
Date    TT    R. A. (2000) Decl.     Delta      r    Elong.  Phase     V
2024 02 06    17 10 25.1 +46 53 05   1.0537  1.3568    83.3    46.2    20.8
...
2024 02 21    17 21 11.9 +44 36 07   0.8879  1.2828    86.1    50.3    20.4
...
2024 02 29    17 22 45.6 +43 21 26   0.7876  1.2504    88.6    52.4    20.1
...
2024 03 06    17 21 27.9 +42 18 10   0.7075  1.2299    91.1    53.8    19.9
2024 03 07    17 21 00.1 +42 06 34   0.6937  1.2268    91.6    54.0    19.9
2024 03 08    17 20 27.4 +41 54 33   0.6799  1.2238    92.1    54.1    19.8
...
2024 03 14    17 15 15.9 +40 31 09   0.5951  1.2081    95.7    55.0    19.5
...
2024 03 22    17 01 32.9 +37 47 05   0.4789  1.1933   102.2    54.7    19.0
...
2024 04 06    15 55 23.6 +23 58 38   0.2707  1.1854   127.6    42.0    17.4

M. P. C. Staff               (C) Copyright 2024 MPC           M.P.E.C. 2024-E118





More information about the Iaude mailing list